Tracking 22124 objects as of 25-Jan-2021
HD Live streaming from Space Station
objects crossing your sky now

STARLINK-1913

Track STARLINK-1913 now!
10-day predictions
STARLINK-1913 is classified as:


NORAD ID: 47179
Int'l Code: 2020-088BK
Perigee: 553.1 km
Apogee: 555.5 km
Inclination: 53.1 °
Period: 95.6 minutes
Semi major axis: 6925 km
RCS: Unknown
Launch date: November 25, 2020
Source: United States (US)
Launch site: AIR FORCE EASTERN TEST RANGE (AFETR)
aabbcc
Your satellite tracking list
Your tracking list is empty




NASA's NSSDC Master Catalog

Two Line Element Set (TLE):
1 47179U 20088BK  21025.25001157 -.00030845  00000-0 -20599-2 0  9996
2 47179  53.0576  63.8608 0001712  59.9346 122.7867 15.06415936 10187
Source of the keplerian elements: AFSPC